Погода в Казанском

Россия / Тюменская область     57°47′30″N   69°39′02″E
темп.,
°C
ветер,
м/с
пор.,
м/с
влажн.,
%
обл.,
%
осадки,
мм/ч
давл.,
гПа
погр.,
м
23 июня, ср
ср2323:00+10св2271100 0.0 101437
02:00+6св248696 0.0 101482
05:00+8ссв25775 0.0 1014139
08:00+13ссв355016 0.0 10151159
11:00+17ссв3539100 0.0 10142328
14:00+15с345583 0.1 10151325
17:00+12с4888100 2.4 1016514
20:00+10с2790100 1.1 1017233
24 июня, чт
чт2423:00+6с28957 1.3 1017164
02:00+5с27965 0.0 1017137
05:00+5с26965 0.0 1018186
08:00+10с34745 0.0 1017621
11:00+14с3447100 0.0 10171788
14:00+15с3546100 0.0 10161831
17:00+15ссв3553100 0.0 10161325
20:00+13ююв116511 0.0 101614
25 июня, пт
пт2523:00+8ююз22795 0.0 101533
02:00+7юз24875 0.0 101469
05:00+8з288159 0.0 1014196
08:00+16зсз34526 0.0 1012427
11:00+21сз343664 0.0 10111765
14:00+24ссз3633100 0.0 10102654
17:00+23св2439100 0.0 10101664
20:00+17вюв2267100 0.0 101046
26 июня, сб
сб2623:00+13вюв2583100 0.0 101095
02:00+11вюв2391100 0.0 101060
05:00+12вюв258698 0.0 1010146
08:00+17вюв3464100 0.0 1010399
11:00+17всв2379100 0.2 1010187
14:00+22ю3352100 0.1 10091242
17:00+16юз3692100 0.2 1010266
20:00+15зсз1192100 0.0 101015
27 июня, вс
вс2723:00+15вюв118996 0.0 101112
02:00+15св1187100 0.0 101011
05:00+15ссв1187100 0.0 101130
08:00+18с13749 0.1 1011386
11:00+23св353646 0.1 10112332
14:00+23всв2439100 0.0 10111856
17:00+20в246358 0.0 1011172
20:00+18ссв1163100 0.0 101214